AirNav   BOSE A20 Aviation Headset
 
 872 users online  

9F9 Sycamore Strip Airport
Fort Worth, Texas, USA

GOING TO FORT WORTH?


FAA INFORMATION EFFECTIVE 24 MAY 2018

Location

FAA Identifier: 9F9
Lat/Long: 32-37-37.3000N / 097-21-14.4250W
32-37.621667N / 097-21.240417W
32.6270278 / -97.3540069
(estimated)
Elevation: 762 ft. / 232 m (estimated)
Variation: 07E (1985)
From city: 8 miles S of FORT WORTH, TX
Time zone: UTC -5 (UTC -6 during Standard Time)
Zip code: 76134

Airport Operations

Airport use: Open to the public
Activation date: 02/1967
Control tower: no
ARTCC: FORT WORTH CENTER
FSS: FORT WORTH FLIGHT SERVICE STATION
NOTAMs facility: FTW (NOTAM-D service available)
Attendance: 0900-1700
Pattern altitude: 1562 ft. MSL
Wind indicator: yes
Segmented circle: yes
Lights: FOR LIRL RY 17/35 CALL 817-293-0510.
Landing fee: yes, LNDG FEE FOR ALL TRANSIENT ACFT.

Airport Communications

CTAF/UNICOM: 122.8
WX AWOS-3 at FWS (4 nm SE): 120.025 (817-426-4172)
WX ASOS at FTW (12 nm N): PHONE 817-740-3346
WX ASOS at GKY (13 nm E): 127.375 (817-557-0251)
WX AWOS-3P at GPM (16 nm E): 118.475 (972-606-1433)
WX AWOS-3 at CPT (17 nm S): 119.525 (817-641-4135)

Nearby radio navigation aids

VOR radial/distance  VOR name  Freq  Var
FUZr203/18.0RANGER VORTAC115.7006E
TTTr221/21.5MAVERICK VOR/DME113.1006E
CVEr229/27.7COWBOY VOR/DME116.2006E
MQPr091/33.0MILLSAP VORTAC117.7009E
JENr037/38.6GLEN ROSE VORTAC115.0006E

Airport Services

Fuel available: 100LL
Parking: tiedowns
Airframe service: MINOR
Powerplant service: MINOR
Bottled oxygen: NONE
Bulk oxygen: NONE

Runway Information

Runway 17/35

Dimensions: 3375 x 30 ft. / 1029 x 9 m
Surface: concrete, in excellent condition
Runway edge lights: non-standard
NSTD LIRL - SINGLE GREEN THLD LGT EACH SIDE, SPACING NSTD 15 FT FM RY EDGE. 2766 FT USEABLE AT NIGHT. RY 35 THLD RELCTD 609 FT AT NIGHT.
RUNWAY 17  RUNWAY 35
Latitude: 32-37.900000N32-37.343333N
Longitude: 097-21.230833W097-21.250000W
Elevation: 760.0 ft.762.0 ft.
Gradient: 0.1%0.1%
Traffic pattern: rightleft
Runway heading: 175 magnetic, 182 true355 magnetic, 002 true
Displaced threshold: no175 ft.
Markings: basic, in good conditionbasic, in good condition
Obstructions: 30 ft. pole, 201 ft. from runway, 123 ft. right of centerline
RR/PLINE PARL & ADJ TO LNDG AREA ON WEST SIDE; RR TRACKS 71' FROM CNTRLN.
25 ft. rr, 201 ft. from runway, 100 ft. left of centerline
FENCE/RR/PLINE PARL & ADJ TO LNDG AREA ON WEST SIDE; 4' FENCE 65' FR THR & ROAD 75' FR THR.

Airport Ownership and Management from official FAA records

Ownership: Privately-owned
Owner: CONNIE AND RON GYURE
2300 CUMMINGHAM STREET
FORT WORTH, TX 76134
Phone 817-293-0510
Manager: CONNIE AND RON GYURE
2300 CUNNINGHAM ST
FORT WORTH, TX 76134
Phone 817-293-0510

Airport Operational Statistics

Aircraft based on the field: 25
Single engine airplanes: 22
Multi engine airplanes: 3
    
Aircraft operations: avg 77/month *
98% local general aviation
2% transient general aviation
* for 12-month period ending 27 July 2016

Additional Remarks

RY 17/35 7 FT WALL 76 FT EAST OF CNTRLN PARALLEL & ADJ TO RY ON 1730 FT N END OF RY.
ARPT CLSD TO TSNT ACFT EXCP 2 HRS PPR CALL 817-293-0510.
FOR CD CTC REGIONAL APCH AT 972-615-2799.

Instrument Procedures

There are no published instrument procedures at 9F9.

Some nearby airports with instrument procedures:

KFWS - Fort Worth Spinks Airport (4 nm SE)
KNFW - Fort Worth Naval Air Station JRB (Carswell Field) Airport (10 nm NW)
KFTW - Fort Worth Meacham International Airport (12 nm N)
50F - Bourland Field Airport (12 nm W)
KGKY - Arlington Municipal Airport (13 nm E)
KGPM - Grand Prairie Municipal Airport (16 nm E)
KCPT - Cleburne Regional Airport (17 nm S)
KWEA - Parker County Airport (18 nm NW)
 
Loc | Ops | Rwys | IFR | FBO | Links
Com | Nav | Svcs | Stats | Notes

AirNav Hotels Sweepstakes
 
Area around 9F9 (Sycamore Strip Airport)
 
Road maps at: MapQuest Bing Google
 
Aerial photo
WARNING: Photo may not be current or correct
Aerial photo of 9F9 (Sycamore Strip Airport)
Photo by Bill Richardson
Photo taken 08-Sep-2013
looking south.

Do you have a better or more recent aerial photo of Sycamore Strip Airport that you would like to share? If so, please send us your photo.

 
Sectional chart

 
Airport distance calculator
Flying to Sycamore Strip Airport? Find the distance to fly.

From to 9F9

Sunrise and sunset
Times for 25-May-2018
 Local
(UTC-5)
 Zulu
(UTC)
Morning civil twilight05:5810:58
Sunrise06:2611:26
Sunset20:2701:27
Evening civil twilight20:5401:54

Current date and time
Zulu (UTC)  26-May-2018 00:39:15
Local (UTC-5)  25-May-2018 19:39:15
 
METAR
KFWS 
5nm SE 
260015Z AUTO 13007KT 10SM CLR 27/16 A2986 RMK AO2 LTG DSNT SW T02740164
KNFW 
10nm NW 
252352Z 12013KT 10SM CLR 30/13 A2985 RMK AO2 PK WND 10030/2319 SLP091 T03000128 10350 20289 56020 $
KFTW 
12nm N 
252353Z 13013KT 10SM CLR 31/14 A2984 RMK AO2 SLP094 T03060144 10356 20289 56022
KGKY 
13nm E 
252353Z 14008KT 10SM CLR 28/17 A2985 RMK AO2 SLP098 T02780167 10333 20267 58023
KGPM 
16nm E 
252350Z 13005KT 10SM SKC 28/13 A2987
KCPT 
17nm S 
260015Z AUTO 11011KT 10SM CLR 26/19 A2986 RMK AO2 LTG DSNT SW AND W
TAF
KNFW 
10nm NW 
2523/2623 14013KT 9999 FEW055 SCT120 BKN300 QNH2982INS FM260300 17009KT 9999 VCSH SCT050 BKN250 QNH2984INS FM261100 16008KT 9999 FEW050 SCT250 QNH2994INS T23/2612Z T36/2621Z FN20059
KFTW 
12nm N 
252050Z 2521/2618 13011KT P6SM SCT060 FM260300 16010KT P6SM VCTS BKN050CB FM260800 17011KT P6SM SCT080
KGKY 
13nm E 
252050Z 2521/2618 13011KT P6SM SCT060 FM260300 16010KT P6SM VCTS BKN050CB FM260800 17011KT P6SM SCT080
NOTAMs
Click for the latest NOTAMs
NOTAMs are issued by the DoD/FAA and will open in a separate window not controlled by AirNav.

 

 
 

FBO, Fuel Providers, and Aircraft Ground Support

  
 Business Name 
 
 Contact 
 
 Services / Description 
 
Fuel Prices
 
Comments
  
A & W Aircraft 817-293-0510
no information available

If you are affiliated with A & W Aircraft and would like to show here your services, contact info, web link, logo, and more, click here
100LL
AS $4.25 
 Updated 23-May-2018
 
   1 read write
AS=Assisted/Self Service
Update Fuel Prices
 

Would you like to see your business listed on this page?

 If your business provides an interesting product or service to pilots, flight crews, aircraft, or users of the Sycamore Strip Airport, you should consider listing it here.  To start the listing process, click on the button below
 
Add a business
 

Other Pages about Sycamore Strip Airport

Update a link
 
Copyright © AirNav, LLC. All rights reserved. Privacy Policy  Contact